• In Uzbekistan
  • List of Countries
  • For 7 days
  • Water Temperature
  • Satellite Maps
  • Weather Map
  • Weather Widgets
  • user-avatar
    Login

    Hourly Weather Yulara

    Today, 27 July, Thursday

    Time Temperature Precipitation Wind Pressure Humidity
    00:00 +19°C° 0 mm 3 mps 722 mmHg 24%
    01:00 +18°C° 0 mm 3 mps 722 mmHg 25%
    02:00 +17°C° 0 mm 3 mps 722 mmHg 26%
    03:00 +17°C° 0 mm 3 mps 722 mmHg 27%
    04:00 +16°C° 0 mm 3 mps 722 mmHg 27%
    05:00 +14°C° 0 mm 3 mps 721 mmHg 28%
    06:00 +15°C° 0 mm 2 mps 721 mmHg 28%
    07:00 +16°C° 0 mm 2 mps 722 mmHg 26%
    08:00 +18°C° 0 mm 2 mps 723 mmHg 24%
    09:00 +19°C° 0 mm 2 mps 723 mmHg 22%
    10:00 +21°C° 0 mm 3 mps 723 mmHg 20%
    11:00 +24°C° 0 mm 3 mps 723 mmHg 18%
    12:00 +26°C° 0 mm 3 mps 723 mmHg 17%
    13:00 +27°C° 0 mm 3 mps 722 mmHg 16%
    14:00 +27°C° 0 mm 2 mps 722 mmHg 15%
    15:00 +28°C° 0 mm 2 mps 721 mmHg 14%
    16:00 +26°C° 0 mm 2 mps 721 mmHg 17%
    17:00 +24°C° 0 mm 1 mps 721 mmHg 19%
    18:00 +22°C° 0 mm 1 mps 721 mmHg 22%
    19:00 +22°C° 0 mm 1 mps 721 mmHg 22%
    20:00 +21°C° 0 mm 2 mps 721 mmHg 22%
    21:00 +20°C° 0 mm 2 mps 722 mmHg 21%
    22:00 +20°C° 0 mm 2 mps 722 mmHg 21%
    23:00 +19°C° 0 mm 3 mps 722 mmHg 21%

    Tomorrow, 28 July, Friday

    Time Temperature Precipitation Wind Pressure Humidity
    00:00 +19°C° 0 mm 3 mps 722 mmHg 22%
    01:00 +18°C° 0 mm 3 mps 721 mmHg 22%
    02:00 +17°C° 0 mm 3 mps 721 mmHg 23%
    03:00 +17°C° 0 mm 3 mps 721 mmHg 24%
    04:00 +16°C° 0 mm 3 mps 721 mmHg 24%
    05:00 +14°C° 0 mm 3 mps 721 mmHg 25%
    06:00 +15°C° 0 mm 2 mps 721 mmHg 26%
    07:00 +16°C° 0 mm 3 mps 722 mmHg 24%
    08:00 +18°C° 0 mm 3 mps 722 mmHg 23%
    09:00 +20°C° 0 mm 3 mps 723 mmHg 21%
    10:00 +22°C° 0 mm 3 mps 722 mmHg 20%
    11:00 +25°C° 0 mm 4 mps 722 mmHg 18%
    12:00 +26°C° 0 mm 5 mps 722 mmHg 16%
    13:00 +27°C° 0 mm 4 mps 721 mmHg 15%
    14:00 +28°C° 0 mm 4 mps 721 mmHg 14%
    15:00 +29°C° 0 mm 4 mps 720 mmHg 13%
    16:00 +27°C° 0 mm 4 mps 720 mmHg 15%
    17:00 +25°C° 0 mm 3 mps 720 mmHg 16%
    18:00 +24°C° 0 mm 3 mps 719 mmHg 18%
    19:00 +22°C° 0 mm 3 mps 720 mmHg 19%
    20:00 +21°C° 0 mm 2 mps 720 mmHg 20%
    21:00 +20°C° 0 mm 2 mps 720 mmHg 20%
    22:00 +20°C° 0 mm 3 mps 720 mmHg 21%
    23:00 +19°C° 0 mm 3 mps 720 mmHg 21%

    Day after tomorrow, 29 July, Saturday

    Time Temperature Precipitation Wind Pressure Humidity
    00:00 +19°C° 0 mm 3 mps 720 mmHg 22%
    01:00 +18°C° 0 mm 3 mps 720 mmHg 22%
    02:00 +18°C° 0 mm 3 mps 720 mmHg 23%
    03:00 +18°C° 0 mm 3 mps 719 mmHg 23%
    04:00 +17°C° 0 mm 3 mps 719 mmHg 24%
    05:00 +17°C° 0 mm 4 mps 719 mmHg 25%
    06:00 +15°C° 0 mm 4 mps 719 mmHg 25%
    07:00 +17°C° 0 mm 5 mps 720 mmHg 24%
    08:00 +19°C° 0 mm 5 mps 720 mmHg 23%
    09:00 +21°C° 0 mm 6 mps 720 mmHg 22%
    10:00 +23°C° 0 mm 7 mps 720 mmHg 21%
    11:00 +26°C° 0 mm 7 mps 720 mmHg 19%
    12:00 +28°C° 0 mm 8 mps 719 mmHg 17%
    13:00 +29°C° 0 mm 8 mps 719 mmHg 16%
    14:00 +30°C° 0 mm 7 mps 718 mmHg 16%
    15:00 +30°C° 0 mm 7 mps 717 mmHg 15%
    16:00 +29°C° 0 mm 6 mps 717 mmHg 17%
    17:00 +28°C° 0 mm 5 mps 717 mmHg 19%
    18:00 +26°C° 0 mm 4 mps 717 mmHg 21%
    19:00 +25°C° 0 mm 4 mps 718 mmHg 23%
    20:00 +24°C° 0 mm 3 mps 718 mmHg 25%
    21:00 +22°C° 0 mm 3 mps 719 mmHg 26%
    22:00 +21°C° 0 mm 4 mps 719 mmHg 32%
    23:00 +20°C° 0 mm 4 mps 718 mmHg 38%

    30 July, Sunday

    Time Temperature Precipitation Wind Pressure Humidity
    00:00 +20°C° 0 mm 4 mps 718 mmHg 44%
    01:00 +19°C° 0 mm 4 mps 718 mmHg 49%
    02:00 +19°C° 0 mm 4 mps 718 mmHg 53%
    03:00 +17°C° 0 mm 5 mps 718 mmHg 57%
    04:00 +16°C° 0 mm 5 mps 718 mmHg 57%
    05:00 +16°C° 0 mm 5 mps 719 mmHg 57%
    06:00 +15°C° 0 mm 5 mps 719 mmHg 56%
    07:00 +16°C° 0 mm 5 mps 719 mmHg 52%
    08:00 +16°C° 0 mm 5 mps 720 mmHg 48%
    09:00 +16°C° 0 mm 6 mps 721 mmHg 43%
    10:00 +19°C° 0 mm 5 mps 720 mmHg 41%
    11:00 +20°C° 0 mm 4 mps 720 mmHg 38%
    12:00 +21°C° 0 mm 3 mps 720 mmHg 36%
    13:00 +23°C° 0 mm 2 mps 719 mmHg 35%
    14:00 +23°C° 0 mm 1 mps 718 mmHg 34%
    15:00 +22°C° 0 mm 0 mps 718 mmHg 33%
    16:00 +24°C° 0 mm 1 mps 718 mmHg 34%
    17:00 +23°C° 0 mm 1 mps 718 mmHg 35%
    18:00 +23°C° 0 mm 2 mps 718 mmHg 36%
    19:00 +21°C° 0 mm 3 mps 719 mmHg 36%
    20:00 +20°C° 0 mm 4 mps 720 mmHg 35%
    21:00 +19°C° 0 mm 5 mps 720 mmHg 34%
    22:00 +17°C° 0 mm 6 mps 720 mmHg 34%
    23:00 +16°C° 0 mm 6 mps 720 mmHg 34%

    31 July, Monday

    Time Temperature Precipitation Wind Pressure Humidity
    00:00 +14°C° 0 mm 6 mps 720 mmHg 33%
    01:00 +14°C° 0 mm 6 mps 720 mmHg 34%
    02:00 +13°C° 0 mm 5 mps 720 mmHg 36%
    03:00 +12°C° 0 mm 5 mps 720 mmHg 37%
    04:00 +12°C° 0 mm 4 mps 721 mmHg 38%
    05:00 +11°C° 0 mm 4 mps 721 mmHg 39%
    06:00 +11°C° 0 mm 4 mps 721 mmHg 40%
    07:00 +12°C° 0 mm 5 mps 722 mmHg 38%
    08:00 +13°C° 0 mm 5 mps 722 mmHg 36%
    09:00 +14°C° 0 mm 6 mps 722 mmHg 34%
    10:00 +15°C° 0 mm 6 mps 722 mmHg 31%
    11:00 +17°C° 0 mm 5 mps 721 mmHg 29%
    12:00 +19°C° 0 mm 5 mps 721 mmHg 26%
    13:00 +20°C° 0 mm 4 mps 720 mmHg 24%
    14:00 +21°C° 0 mm 4 mps 720 mmHg 23%
    15:00 +21°C° 0 mm 3 mps 719 mmHg 22%
    16:00 +20°C° 0 mm 3 mps 719 mmHg 23%
    17:00 +20°C° 0 mm 3 mps 719 mmHg 25%
    18:00 +19°C° 0 mm 3 mps 719 mmHg 26%
    19:00 +18°C° 0 mm 4 mps 720 mmHg 28%
    20:00 +17°C° 0 mm 4 mps 720 mmHg 30%
    21:00 +16°C° 0 mm 5 mps 720 mmHg 31%
    22:00 +15°C° 0 mm 5 mps 720 mmHg 33%
    23:00 +15°C° 0 mm 6 mps 720 mmHg 35%

    1 August, Tuesday

    Time Temperature Precipitation Wind Pressure Humidity
    00:00 +14°C° 0 mm 6 mps 719 mmHg 36%
    01:00 +14°C° 0 mm 6 mps 719 mmHg 38%
    02:00 +13°C° 0 mm 6 mps 719 mmHg 40%
    03:00 +12°C° 0 mm 7 mps 718 mmHg 41%
    04:00 +13°C° 0 mm 6 mps 718 mmHg 43%
    05:00 +11°C° 0 mm 6 mps 718 mmHg 45%
    06:00 +11°C° 0 mm 6 mps 718 mmHg 47%
    07:00 +13°C° 0 mm 6 mps 718 mmHg 46%
    08:00 +14°C° 0 mm 6 mps 718 mmHg 45%
    09:00 +15°C° 0 mm 7 mps 718 mmHg 44%
    10:00 +18°C° 0 mm 7 mps 718 mmHg 39%
    11:00 +22°C° 0 mm 8 mps 717 mmHg 34%
    12:00 +26°C° 0 mm 9 mps 717 mmHg 29%
    13:00 +27°C° 0 mm 10 mps 716 mmHg 26%
    14:00 +28°C° 0 mm 11 mps 715 mmHg 24%
    15:00 +29°C° 0 mm 12 mps 714 mmHg 21%
    16:00 +28°C° 0 mm 11 mps 714 mmHg 21%
    17:00 +26°C° 0 mm 9 mps 714 mmHg 20%
    18:00 +24°C° 0 mm 8 mps 714 mmHg 19%
    19:00 +23°C° 0 mm 8 mps 715 mmHg 18%
    20:00 +21°C° 0 mm 7 mps 715 mmHg 17%
    21:00 +20°C° 0 mm 7 mps 715 mmHg 16%
    22:00 +17°C° 0 mm 7 mps 716 mmHg 24%
    23:00 +15°C° 0 mm 7 mps 716 mmHg 31%
    Show more